Tracking 30995 objects as of 7-Jul-2025
HD Live streaming from Space Station
objects crossing your sky now

STARLINK-31526

Track STARLINK-31526 now!
10-day predictions
STARLINK-31526 is classified as:


NORAD ID: 59016
Int'l Code: 2024-036U
Perigee: 481.5 km
Apogee: 483.2 km
Inclination: 53.2 °
Period: 94.1 minutes
Semi major axis: 6853 km
RCS: Unknown
Launch date: February 23, 2024
Source: United States (US)
Launch site: AIR FORCE WESTERN TEST RANGE (AFWTR)
Your satellite tracking list
Your tracking list is empty




NASA's NSSDC Master Catalog

Two Line Element Set (TLE):
1 59016U 24036U   25187.21965893  .00000141  00000-0  16881-4 0  9996
2 59016  53.1599 117.6198 0001241  78.9538 281.1602 15.30192656 77941
Source of the keplerian elements: AFSPC